Regional Weather Roundup
Issued by NWS Mobile, AL

Home | Current Version | Previous Version | Text Only | Print | Product List | Glossary On
Versions: 1 2 3 4 5 6 7 8 9 10 11 12 13 14 15 16 17 18 19 20 21 22 23 24 25 26 27 28 29 30 31 32 33 34 35 36 37 38 39 40 41 42 43 44 45 46 47 48 49 50
578
ASUS44 KMOB 220412
RWRMOB
REGIONAL WEATHER ROUNDUP
NATIONAL WEATHER SERVICE MOBILE AL
1000 PM CST TUE NOV 21 2017

NOTE: "FAIR" INDICATES FEW OR NO CLOUDS BELOW 12,000 FEET WITH NO
      SIGNIFICANT WEATHER AND/OR OBSTRUCTIONS TO VISIBILITY.

  * THESE STATIONS ARE PART OF THE UNIVERSITY OF SOUTH ALABAMA
    MESONET AND ARE NOT UNDER NWS OR FAA QUALITY CONTROL.

ALZ061>064-220500-
COASTAL ALABAMA

CITY           SKY/WX    TMP DP  RH WIND       PRES   REMARKS
MOBILE REG APT CLOUDY    58  49  72 N6        30.04R
BROOKLEY FIELD CLOUDY    58  52  80 NW7       30.05R
USA CAMPUS*    NOT AVBL
DOG RIVER*     NOT AVBL


CITY           SKY/WX    TMP DP  RH WIND       PRES   REMARKS
GULF SHORES    MOCLDY    49  49 100 NE3       30.02S

$$

ALZ051>060-220500-
INTERIOR SOUTHWEST AND SOUTH CENTRAL ALABAMA

CITY           SKY/WX    TMP DP  RH WIND       PRES   REMARKS
GREENVILLE     CLOUDY    55  43  63 N5        30.03R
EVERGREEN      CLOUDY    54  47  77 CALM      30.04R
ATMORE*          N/A    N/A N/A N/A VRB5        N/A
ANDALUSIA/OPP  CLOUDY    59  53  80 N5        30.00R
ANDALUSIA*       N/A     57  54  88 N5        30.00R
FLORALA APT    MOCLDY    56  53  90 VRB3      30.02R
FLORALA*         N/A     52  52 100 CALM      30.69R

$$

FLZ001>006-220500-
WESTERN FLORIDA PANHANDLE

CITY           SKY/WX    TMP DP  RH WIND       PRES   REMARKS
PENSACOLA      CLOUDY    57  51  80 NW8       30.02R
NAS PENSACOLA  CLOUDY    57  50  77 NW7       30.02R
MILTON         MOCLDY    54  53  97 NW6       30.02R
WHTNG S FIELD  CLOUDY    56  49  77 NW9       30.02R


CITY           SKY/WX    TMP DP  RH WIND       PRES   REMARKS
JAY*             N/A     55  48  76 NW6       30.04R
DUKE FIELD     PTCLDY    56  52  88 NW5       30.00R
CRESTVIEW      CLOUDY    53  51  93 CALM      30.02R
VALPARAISO     PTCLDY    57  53  87 N3        29.99R
DESTIN         PTCLDY    63  56  78 N5        29.98R

$$

MSZ076-079-220500-
INTERIOR SOUTHEAST MISSISSIPPI

CITY           SKY/WX    TMP DP  RH WIND       PRES   REMARKS
LEAKESVILLE*     N/A     54  50  87 E3        30.06S
AGRICOLA*        N/A     57  48  72 NE2       30.03F

$$

MARINE OBSERVATIONS

STATION/POSITION TIME  TEMP    WIND        PRES    WAVE
                       AIR SEA DIR/SP/G            HT/PER
                 (UTC) (F)     (DEG/KT/KT) (MB)    (FT/S)
PASCAGOULA       0348   60     360/  3/  3 1016.7R
PETIT BOIS ISLND 0348   64     340/  7/  8 1017.4R
KATRINA CUT      0330   63      20/  4     1017.3R
CEDAR POINT      0330   61     360/  3     1016.6R
E DAUPHIN ISLAND 0300   63      10/  4/  5 1016.2R
MIDDLE BAY LIGHT 0300   62      30/  4     1016.6
USCG MOBILE BAY  0348   59 64  340/  5/  6 1017.1R
STATE DOCKS      0336   60 67              1016.9R
MEAHER PARK      0330   60     350/  3     1016.6R
WEEKS BAY        0230   54                 1016.0S
FORT MORGAN      0348   65      30/  8/  9   N/A
12 S ORANGE BCH  NOT AVBL
PENSACOLA BAY    0336   58 64              1016.6R
64 S DAUPHIN ISL 0400   70 78   20/ 10/ 14 1015.9
67 S FORT MORGAN 0330   69      10/  8     1015.6S

$$

SELECTED LOCATIONS ACROSS THE REGION

CITY           SKY/WX    TMP DP  RH WIND       PRES   REMARKS
NEW ORLEANS    CLOUDY    64  62  93 N7        30.03S
GULFPORT       CLOUDY    59  56  89 N6        30.02S
PASCAGOULA AP  MOCLDY    53  51  93 CALM      30.04R
PASCAGOULA*      N/A     43  43 100 CALM        N/A
HATTIESBURG    CLOUDY    54  52  93 CALM      30.07R
LAUREL         CLOUDY    54  49  83 N6        30.08R
MERIDIAN       CLOUDY    47  46  97 NW5       30.09R
JACKSON        PTCLDY    48  44  86 CALM      30.09R
MONTGOMERY     MOCLDY    48  42  80 NW3       30.04R
TROY           MOCLDY    53  53 100 W3        30.02R
ASHFORD*         N/A     57  54  88 N5        30.00R
DOTHAN         CLEAR     56  56 100 N3        30.02F
PANAMA CITY    CLOUDY    61  57  87 CALM      29.97S

$$





USA.gov is the U.S. government's official web portal to all federal, state and local government web resources and services.